2024/02/08 00:00:00, 0.0, 1.6
2024/02/08 00:10:00, 0.1, 1.6
2024/02/08 00:20:00, 0.1, 1.5
2024/02/08 00:30:00, 0.4, 1.6
2024/02/08 00:40:00, 0.7, 1.3
2024/02/08 00:50:00, 0.7, 1.2
2024/02/08 01:00:00, 0.9, 1.4
2024/02/08 01:10:00, 1.2, 1.5
2024/02/08 01:20:00, 1.2, 1.4
2024/02/08 01:30:00, 1.4, 1.4
2024/02/08 01:40:00, 1.5, 1.4
2024/02/08 01:50:00, 1.4, 1.4
2024/02/08 02:00:00, 1.5, 1.4
2024/02/08 02:10:00, 1.6, 1.5
2024/02/08 02:20:00, 1.6, 1.1
2024/02/08 02:30:00,34.1, 1.4
2024/02/08 02:40:00,---, 1.3
2024/02/08 02:50:00,---, 1.2
2024/02/08 03:00:00,58.2, 1.2
2024/02/08 03:10:00,82.7, 1.1
2024/02/08 03:20:00,82.6, 1.1
2024/02/08 03:30:00,50.2, 0.9
2024/02/08 03:40:00,82.9, 0.8
2024/02/08 03:50:00,83.1, 0.5
2024/02/08 04:00:00,83.2, 0.7
2024/02/08 04:10:00,---, 0.9
2024/02/08 04:20:00,83.1, 1.0
2024/02/08 04:30:00,83.0, 0.7
2024/02/08 04:40:00,83.1, 1.2
2024/02/08 04:50:00,83.4, 1.2
2024/02/08 05:00:00,83.7, 1.1
2024/02/08 05:10:00,83.6, 1.0
2024/02/08 05:20:00,83.7, 1.0
2024/02/08 05:30:00,83.7, 0.9
2024/02/08 05:40:00,83.7, 1.2
2024/02/08 05:50:00,83.8, 1.0
2024/02/08 06:00:00,83.7, 1.0
2024/02/08 06:10:00,84.0, 0.8
2024/02/08 06:20:00,84.4, 1.1
2024/02/08 06:30:00,84.3, 0.9
2024/02/08 06:40:00,84.5, 1.1
2024/02/08 06:50:00,84.6, 1.1
2024/02/08 07:00:00,84.5, 1.0
2024/02/08 07:10:00,83.7, 1.1
2024/02/08 07:20:00,84.0, 1.0
2024/02/08 07:30:00,84.4, 1.1
2024/02/08 07:40:00,84.5, 1.1
2024/02/08 07:50:00,85.0, 1.1
2024/02/08 08:00:00,84.3, 1.1
2024/02/08 08:10:00,83.6, 1.1
2024/02/08 08:20:00,83.4, 1.2
2024/02/08 08:30:00,59.1, 1.4
2024/02/08 08:40:00,59.1, 1.4
2024/02/08 08:50:00,42.8, 2.0
2024/02/08 09:00:00,42.5, 2.1
2024/02/08 09:10:00,34.7, 2.4
2024/02/08 09:20:00,---, 2.5
2024/02/08 09:30:00, 2.0, 2.7
2024/02/08 09:40:00, 1.8, 3.0
2024/02/08 09:50:00, 1.2, 3.4
2024/02/08 10:00:00, 0.8, 3.5
2024/02/08 10:10:00, 0.2, 4.8
2024/02/08 10:20:00, 0.0, 5.7
2024/02/08 10:30:00, 0.0, 5.7
2024/02/08 10:40:00, 0.0, 5.6
2024/02/08 10:50:00, 0.3, 5.3
2024/02/08 11:00:00, 0.2, 5.6
2024/02/08 11:10:00, 0.0, 5.8
2024/02/08 11:20:00, 0.0, 5.5
2024/02/08 11:30:00, 0.0, 5.5
2024/02/08 11:40:00, 0.0, 6.0
2024/02/08 11:50:00, 0.0, 5.8
2024/02/08 12:00:00, 0.3, 5.8
2024/02/08 12:10:00, 2.3, 5.4
2024/02/08 12:20:00, 1.7, 6.3
2024/02/08 12:30:00, 1.6, 6.3
2024/02/08 12:40:00, 2.3, 5.3
2024/02/08 12:50:00, 2.6, 5.3
2024/02/08 13:00:00, 2.4, 5.7
2024/02/08 13:10:00, 2.4, 5.5
2024/02/08 13:20:00, 2.1, 5.9
2024/02/08 13:30:00, 1.9, 5.9
2024/02/08 13:40:00, 2.0, 6.0
2024/02/08 13:50:00, 4.3, 5.9
2024/02/08 14:00:00, 5.5, 6.0
2024/02/08 14:10:00, 4.8, 6.0
2024/02/08 14:20:00, 4.4, 6.0
2024/02/08 14:30:00, 3.6, 6.2
2024/02/08 14:40:00, 4.1, 5.8
2024/02/08 14:50:00, 4.5, 5.7
2024/02/08 15:00:00, 4.0, 5.7
2024/02/08 15:10:00, 3.2, 6.0
2024/02/08 15:20:00, 2.4, 6.0
2024/02/08 15:30:00, 2.8, 5.6
2024/02/08 15:40:00, 2.6, 5.6
2024/02/08 15:50:00, 2.6, 5.5
2024/02/08 16:00:00, 2.5, 5.6
2024/02/08 16:10:00, 2.4, 5.1
2024/02/08 16:20:00, 2.6, 5.0
2024/02/08 16:30:00, 2.6, 4.7
2024/02/08 16:40:00, 2.6, 4.6
2024/02/08 16:50:00, 2.7, 4.2
2024/02/08 17:00:00, 2.7, 3.2
2024/02/08 17:10:00, 2.8, 3.9
2024/02/08 17:20:00, 2.8, 4.0
2024/02/08 17:30:00, 3.0, 3.1
2024/02/08 17:40:00, 2.9, 2.8
2024/02/08 17:50:00, 3.0, 2.5
2024/02/08 18:00:00, 3.1, 2.2
2024/02/08 18:10:00, 3.2, 1.8
2024/02/08 18:20:00, 3.2, 1.6
2024/02/08 18:30:00, 3.1, 1.3
2024/02/08 18:40:00, 3.1, 1.0
2024/02/08 18:50:00, 3.2, 0.9
2024/02/08 19:00:00, 3.2, 0.3
2024/02/08 19:10:00, 3.3, 0.4
2024/02/08 19:20:00, 3.3, 0.4
2024/02/08 19:30:00, 3.4,-0.1
2024/02/08 19:40:00, 3.5,-0.2
2024/02/08 19:50:00, 3.6,-0.5
2024/02/08 20:00:00, 3.6,-0.1
2024/02/08 20:10:00,---, 0.0
2024/02/08 20:20:00,---, 0.0
2024/02/08 20:30:00, 3.2, 0.1
2024/02/08 20:40:00, 3.2, 0.2
2024/02/08 20:50:00, 3.3, 0.3
2024/02/08 21:00:00, 3.2, 0.4
2024/02/08 21:10:00, 3.2, 0.4
2024/02/08 21:20:00, 3.2, 0.2
2024/02/08 21:30:00, 3.1, 0.3
2024/02/08 21:40:00, 3.2, 0.1
2024/02/08 21:50:00, 3.2, 0.4
2024/02/08 22:00:00, 3.2, 0.2
2024/02/08 22:10:00, 3.2, 0.1
2024/02/08 22:20:00, 3.1, 0.2
2024/02/08 22:30:00, 3.1, 0.1
2024/02/08 22:40:00, 3.1, 0.0
2024/02/08 22:50:00, 3.2, 0.2
2024/02/08 23:00:00, 3.2, 0.2
2024/02/08 23:10:00, 3.2, 0.1
2024/02/08 23:20:00, 3.2,-0.1
2024/02/08 23:30:00, 3.1,-0.1
2024/02/08 23:40:00, 3.0, 0.0
2024/02/08 23:50:00, 3.2,-0.1
